When you browse on this site, cookies collect data to enhance your experience and personalize the content and advertising you see.
Visit our Privacy Policy to learn more. By continuing to use the site, you agree to this use of cookies and data.
  • In Austria
  • List of Countries
  • For 7 days
  • Water Temperature
  • Satellite Maps
  • Weather Map
  • News
  • Weather Widgets
  • user-avatar
    Login

    Hourly Weather Perth

    Today, 19 January, Saturday

    Time Temperature Precipitation Wind Pressure Humidity
    00:00 +25°C° 0 mm 3 mps 760 mmHg 33%
    01:00 +25°C° 0 mm 4 mps 760 mmHg 31%
    02:00 +25°C° 0 mm 5 mps 760 mmHg 31%
    03:00 +25°C° 0 mm 5 mps 760 mmHg 35%
    04:00 +23°C° 0 mm 5 mps 760 mmHg 38%
    05:00 +23°C° 0 mm 6 mps 760 mmHg 42%
    06:00 +24°C° 0 mm 6 mps 760 mmHg 40%
    07:00 +27°C° 0 mm 6 mps 761 mmHg 38%
    08:00 +28°C° 0 mm 6 mps 761 mmHg 36%
    09:00 +32°C° 0 mm 5 mps 760 mmHg 33%
    10:00 +35°C° 0 mm 4 mps 760 mmHg 29%
    11:00 +37°C° 0 mm 3 mps 760 mmHg 26%
    12:00 +39°C° 0 mm 3 mps 759 mmHg 23%
    13:00 +40°C° 0 mm 3 mps 759 mmHg 21%
    14:00 +42°C° 0 mm 2 mps 758 mmHg 18%
    15:00 +42°C° 0 mm 3 mps 758 mmHg 20%
    16:00 +41°C° 0 mm 4 mps 757 mmHg 21%
    17:00 +40°C° 0 mm 5 mps 757 mmHg 22%
    18:00 +37°C° 0 mm 5 mps 757 mmHg 24%
    19:00 +35°C° 0 mm 5 mps 757 mmHg 26%
    20:00 +33°C° 0 mm 5 mps 757 mmHg 28%
    21:00 +33°C° 0 mm 5 mps 758 mmHg 26%
    22:00 +32°C° 0 mm 4 mps 758 mmHg 25%
    23:00 +30°C° 0 mm 4 mps 758 mmHg 23%

    Tomorrow, 20 January, Sunday

    Time Temperature Precipitation Wind Pressure Humidity
    00:00 +30°C° 0 mm 4 mps 758 mmHg 25%
    01:00 +29°C° 0 mm 4 mps 758 mmHg 27%
    02:00 +29°C° 0 mm 4 mps 757 mmHg 28%
    03:00 +29°C° 0 mm 4 mps 757 mmHg 29%
    04:00 +29°C° 0 mm 4 mps 757 mmHg 30%
    05:00 +29°C° 0 mm 4 mps 757 mmHg 31%
    06:00 +32°C° 0 mm 4 mps 757 mmHg 29%
    07:00 +34°C° 0 mm 4 mps 757 mmHg 27%
    08:00 +36°C° 0 mm 4 mps 757 mmHg 25%
    09:00 +38°C° 0 mm 4 mps 757 mmHg 22%
    10:00 +42°C° 0 mm 4 mps 757 mmHg 20%
    11:00 +44°C° 0 mm 3 mps 757 mmHg 17%
    12:00 +44°C° 0 mm 4 mps 756 mmHg 17%
    13:00 +44°C° 0 mm 4 mps 756 mmHg 17%
    14:00 +45°C° 0 mm 4 mps 755 mmHg 17%
    15:00 +43°C° 0 mm 4 mps 755 mmHg 19%
    16:00 +42°C° 0 mm 5 mps 754 mmHg 21%
    17:00 +41°C° 0 mm 5 mps 754 mmHg 23%
    18:00 +38°C° 0 mm 4 mps 754 mmHg 26%
    19:00 +35°C° 0 mm 4 mps 754 mmHg 30%
    20:00 +33°C° 0 mm 3 mps 755 mmHg 33%
    21:00 +31°C° 0 mm 3 mps 755 mmHg 35%
    22:00 +30°C° 0 mm 2 mps 755 mmHg 36%
    23:00 +30°C° 0 mm 2 mps 755 mmHg 38%

    Day after tomorrow, 21 January, Monday

    Time Temperature Precipitation Wind Pressure Humidity
    00:00 +29°C° 0 mm 2 mps 755 mmHg 38%
    01:00 +29°C° 0 mm 1 mps 755 mmHg 39%
    02:00 +28°C° 0 mm 1 mps 754 mmHg 40%
    03:00 +28°C° 0 mm 1 mps 754 mmHg 41%
    04:00 +28°C° 0 mm 1 mps 754 mmHg 43%
    05:00 +27°C° 0 mm 1 mps 754 mmHg 44%
    06:00 +29°C° 0 mm 2 mps 754 mmHg 43%
    07:00 +30°C° 0 mm 2 mps 754 mmHg 42%
    08:00 +31°C° 0 mm 3 mps 755 mmHg 41%
    09:00 +34°C° 0 mm 3 mps 754 mmHg 38%
    10:00 +35°C° 0 mm 4 mps 754 mmHg 36%
    11:00 +37°C° 0 mm 4 mps 754 mmHg 34%
    12:00 +37°C° 0 mm 5 mps 753 mmHg 34%
    13:00 +36°C° 0 mm 6 mps 753 mmHg 34%
    14:00 +36°C° 0 mm 7 mps 753 mmHg 35%
    15:00 +35°C° 0 mm 7 mps 752 mmHg 35%
    16:00 +34°C° 0 mm 7 mps 752 mmHg 36%
    17:00 +32°C° 0 mm 7 mps 752 mmHg 37%
    18:00 +30°C° 0 mm 7 mps 753 mmHg 41%
    19:00 +28°C° 0 mm 6 mps 754 mmHg 46%
    20:00 +27°C° 0 mm 6 mps 754 mmHg 50%
    21:00 +27°C° 0 mm 5 mps 755 mmHg 47%
    22:00 +28°C° 0 mm 5 mps 755 mmHg 44%
    23:00 +28°C° 0 mm 5 mps 756 mmHg 41%

    22 January, Tuesday

    Time Temperature Precipitation Wind Pressure Humidity
    00:00 +27°C° 0 mm 4 mps 756 mmHg 42%
    01:00 +26°C° 0 mm 4 mps 755 mmHg 43%
    02:00 +25°C° 0 mm 4 mps 755 mmHg 44%
    03:00 +25°C° 0 mm 4 mps 755 mmHg 46%
    04:00 +23°C° 0 mm 4 mps 755 mmHg 47%
    05:00 +24°C° 0 mm 3 mps 755 mmHg 49%
    06:00 +25°C° 0 mm 4 mps 755 mmHg 48%
    07:00 +25°C° 0 mm 4 mps 755 mmHg 48%
    08:00 +26°C° 0 mm 4 mps 756 mmHg 48%
    09:00 +28°C° 0 mm 3 mps 755 mmHg 44%
    10:00 +30°C° 0 mm 3 mps 755 mmHg 40%
    11:00 +33°C° 0 mm 3 mps 755 mmHg 36%
    12:00 +34°C° 0 mm 3 mps 754 mmHg 34%
    13:00 +35°C° 0 mm 3 mps 754 mmHg 33%
    14:00 +36°C° 0 mm 2 mps 753 mmHg 32%
    15:00 +35°C° 0 mm 3 mps 753 mmHg 35%
    16:00 +34°C° 0 mm 4 mps 753 mmHg 38%
    17:00 +33°C° 0 mm 4 mps 753 mmHg 41%
    18:00 +30°C° 0 mm 4 mps 753 mmHg 49%
    19:00 +28°C° 0 mm 4 mps 753 mmHg 57%
    20:00 +26°C° 0 mm 4 mps 753 mmHg 66%
    21:00 +25°C° 0 mm 4 mps 754 mmHg 71%
    22:00 +24°C° 0 mm 3 mps 754 mmHg 75%
    23:00 +22°C° 0 mm 3 mps 754 mmHg 80%

    23 January, Wednesday

    Time Temperature Precipitation Wind Pressure Humidity
    00:00 +22°C° 0 mm 3 mps 754 mmHg 80%
    01:00 +21°C° 0 mm 3 mps 754 mmHg 80%
    02:00 +21°C° 0 mm 3 mps 754 mmHg 80%
    03:00 +21°C° 0 mm 4 mps 754 mmHg 79%
    04:00 +20°C° 0 mm 4 mps 754 mmHg 78%
    05:00 +20°C° 0 mm 5 mps 755 mmHg 78%
    06:00 +20°C° 0 mm 5 mps 755 mmHg 73%
    07:00 +21°C° 0 mm 5 mps 755 mmHg 69%
    08:00 +21°C° 0 mm 6 mps 756 mmHg 65%
    09:00 +22°C° 0 mm 6 mps 756 mmHg 59%
    10:00 +23°C° 0 mm 6 mps 756 mmHg 53%
    11:00 +23°C° 0 mm 7 mps 756 mmHg 46%
    12:00 +23°C° 0 mm 7 mps 755 mmHg 47%
    13:00 +23°C° 0 mm 7 mps 755 mmHg 47%
    14:00 +23°C° 0 mm 8 mps 755 mmHg 48%
    15:00 +23°C° 0 mm 8 mps 755 mmHg 50%
    16:00 +22°C° 0 mm 8 mps 756 mmHg 51%
    17:00 +22°C° 0 mm 8 mps 756 mmHg 53%
    18:00 +21°C° 0 mm 7 mps 756 mmHg 56%
    19:00 +20°C° 0 mm 6 mps 757 mmHg 59%
    20:00 +19°C° 0 mm 5 mps 757 mmHg 61%
    21:00 +17°C° 0 mm 5 mps 757 mmHg 63%
    22:00 +17°C° 0 mm 5 mps 757 mmHg 65%
    23:00 +17°C° 0 mm 5 mps 757 mmHg 66%

    24 January, Thursday

    Time Temperature Precipitation Wind Pressure Humidity
    00:00 +17°C° 0 mm 5 mps 757 mmHg 67%
    01:00 +17°C° 0 mm 5 mps 757 mmHg 68%
    02:00 +17°C° 0 mm 5 mps 756 mmHg 69%
    03:00 +17°C° 0 mm 5 mps 756 mmHg 71%
    04:00 +17°C° 0 mm 5 mps 756 mmHg 73%
    05:00 +18°C° 0 mm 4 mps 757 mmHg 74%
    06:00 +19°C° 0.1 mm 5 mps 757 mmHg 71%
    07:00 +19°C° 0.1 mm 5 mps 757 mmHg 68%
    08:00 +20°C° 0.1 mm 5 mps 758 mmHg 64%
    09:00 +20°C° 0.1 mm 5 mps 758 mmHg 63%
    10:00 +21°C° 0.1 mm 5 mps 758 mmHg 63%
    11:00 +21°C° 0.1 mm 5 mps 758 mmHg 62%
    12:00 +22°C° 0 mm 6 mps 758 mmHg 59%
    13:00 +22°C° 0 mm 6 mps 757 mmHg 56%
    14:00 +23°C° 0 mm 6 mps 757 mmHg 53%
    15:00 +23°C° 0 mm 6 mps 757 mmHg 53%
    16:00 +23°C° 0 mm 6 mps 757 mmHg 54%
    17:00 +22°C° 0 mm 6 mps 757 mmHg 54%
    18:00 +21°C° 0 mm 6 mps 757 mmHg 60%
    19:00 +20°C° 0 mm 5 mps 758 mmHg 67%
    20:00 +18°C° 0 mm 4 mps 758 mmHg 73%
    21:00 +18°C° 0 mm 4 mps 758 mmHg 75%
    22:00 +17°C° 0 mm 3 mps 758 mmHg 77%
    23:00 +17°C° 0 mm 3 mps 758 mmHg 79%
    Show more